[[{"header":{"parameterUnit":"m.s-1","parameterCategory":1,"la1":30.2991,"la2":30.254,"lo1":-89.0895,"lo2":-89.0444,"dy":0.0017,"dx":0.0017,"nx":28,"ny":28,"refTime":"2026-01-30T03:00:00:Z","depth":0,"parameterNumber":2,"parameterNumberName":"U-component_of_WINDS"},"data":[0,0,0,0,0,0,0,0,0,0,0,0,0,0,0,0,0,0,0,0,0,0,0,0,0,0,0,0,0,0,0,0,0,0,0,0,0,0,0,0,0,0,0,0,0,0,0,0,0,0,0,0,0,0,0,0,0,0,3.0027,3.0028,0,3.0087,3.0088,3.0089,3.0084,3.0083,3.0082,3.0081,3.0142,3.0145,3.0147,0,0,0,0,0,0,0,0,0,0,0,0,0,2.9908,2.991,3.0027,3.0028,3.0028,3.0087,3.0088,3.0089,3.0084,3.0083,3.0082,3.0081,3.0141,3.0144,3.0147,0,0,0,0,0,0,0,0,0,0,0,0,0,2.9963,2.9911,3.0027,3.0033,3.0034,3.0087,3.0088,3.0089,3.0084,3.0083,3.0082,3.008,3.014,3.0144,3.0148,3.0198,0,0,3.0159,3.0161,0,0,0,0,0,0,0,0,2.996,2.9967,3.0031,3.0033,3.0034,3.0077,3.0068,3.0126,3.0085,3.0065,3.0081,3.008,3.0122,3.0127,3.0141,3.0201,3.0203,3.0159,3.0162,3.0163,3.0164,0,0,0,0,0,0,0,2.9956,2.9965,3.0051,3.0032,3.0034,3.0033,3.0039,3.0079,3.01,3.0067,3.0067,3.0074,3.0122,3.0137,3.0142,3.0204,3.0159,3.0163,3.0165,3.0166,3.031,3.0312,0,0,0,0,0,0,2.9951,2.9962,3.0049,3.0053,2.9993,3.0036,3.0043,3.0064,3.01,3.0104,3.0075,3.0073,3.0132,3.0138,3.0145,3.0206,3.0163,3.0167,3.0169,3.0309,3.031,3.0312,0,0,0,0,0,0,2.9948,2.9959,3.0046,3.0007,3.0018,3.004,3.0063,3.0066,3.0082,3.0106,3.011,3.0087,3.0131,3.0139,3.0185,3.0208,3.0168,3.0172,3.0307,3.0309,3.0311,3.033,0,0,0,0,0,0,2.9945,2.9958,2.9977,3.0008,3.002,3.0086,3.0065,3.0068,3.0088,3.0087,3.0118,3.0122,3.0131,3.018,3.0189,3.0213,3.0175,3.0305,3.0308,3.0311,3.0327,3.0333,3.0337,0,0,0,0,0,2.9941,2.9979,2.9978,2.9988,3.0044,3.0087,3.0094,3.0104,3.009,3.011,3.0126,3.0121,3.0205,3.0184,3.0195,3.022,3.0303,3.0307,3.031,3.0325,3.0332,3.0337,0,0,0,0,0,0,2.9949,2.9983,2.9982,3.0031,3.0057,3.0086,3.0111,3.011,3.0139,3.0137,3.0147,3.0154,3.02,3.0215,3.0192,3.0272,3.0252,3.0258,3.026,3.0266,3.0271,3.0267,3.0178,0,0,0,0,0,2.9957,2.9989,3.0017,3.0058,3.0071,3.0089,3.0108,3.0113,3.0139,3.015,3.0169,3.0194,3.0227,3.0247,3.0278,3.033,3.0337,3.0353,3.0358,3.0362,3.0366,3.0396,3.0404,3.0324,3.0324,3.0324,0,0,2.9973,2.9996,3.0015,3.006,3.008,3.0113,3.0098,3.0133,3.0158,3.0155,3.0199,3.0215,3.0244,3.0294,3.0316,3.0307,3.039,3.0366,3.0369,3.0372,3.0401,3.0408,3.0415,3.0326,3.0326,3.0326,0,0,3.002,3.004,3.0077,3.0098,3.0129,3.0141,3.015,3.018,3.0191,3.0236,3.0235,3.0265,3.032,3.0341,3.0359,3.0416,3.0413,3.0426,3.0452,3.0481,3.0487,3.0493,3.0513,3.0521,3.0431,3.0431,3.0431,0,3.0036,3.0085,3.0096,3.0132,3.0152,3.0152,3.019,3.021,3.0249,3.0264,3.0253,3.0323,3.0343,3.0398,3.0412,3.0427,3.0438,3.0422,3.0485,3.0491,3.0496,3.0516,3.0524,3.0432,3.0432,3.0432,3.0432,0,3.0104,3.0139,3.0165,3.0204,3.0227,3.0264,3.028,3.0303,3.0307,3.032,3.0367,3.0391,3.0428,3.0441,3.0445,3.0498,3.0491,3.0483,3.0464,3.0505,3.0524,3.0532,3.0434,3.0434,3.0433,3.0433,0,0,3.0156,3.0202,3.0211,3.0229,3.0265,3.0292,3.0329,3.0366,3.0385,3.0413,3.0445,3.0493,3.0486,3.0506,3.0513,3.0538,3.0583,3.0527,3.0528,3.0537,3.0643,3.0649,3.0658,3.0582,3.0583,3.0585,3.0641,0,3.0206,3.0272,3.0284,3.0342,3.0374,3.0376,3.0409,3.0435,3.0449,3.0479,3.0495,3.0529,3.0517,3.053,3.0555,3.0572,3.0605,3.0568,3.0612,3.0613,3.0604,3.0668,3.0673,3.0725,3.0648,3.065,3.0651,0,3.0272,3.0303,3.0365,3.0397,3.0411,3.0441,3.0476,3.0504,3.0534,3.0543,3.0567,3.0571,3.0611,3.059,3.0646,3.0621,3.064,3.0651,3.0653,3.0657,3.0634,3.0673,3.0742,3.075,3.0662,3.0661,3.0661,0,3.0304,3.0361,3.0406,3.0421,3.046,3.0481,3.0498,3.0526,3.0548,3.0579,3.0593,3.0628,3.0647,3.0675,3.0688,3.0672,3.0743,3.0724,3.0751,3.0751,3.0765,3.0764,3.0838,3.0778,3.0778,3.0778,3.0778,0,3.0359,3.0397,3.0421,3.0448,3.0491,3.0504,3.0546,3.0563,3.0589,3.062,3.0624,3.0653,3.0669,3.0701,3.0712,3.0757,3.0765,3.0774,3.0776,3.0773,3.0772,3.0785,3.0782,3.078,3.078,3.0779,3.0779,0,3.0401,3.0419,3.0468,3.0501,3.0511,3.0541,3.057,3.0597,3.0612,3.0651,3.0661,3.0685,3.0722,3.0739,3.0785,3.0793,3.0844,3.0844,3.0834,3.0835,3.0862,3.0859,3.0946,3.0959,3.0891,3.0891,3.0892,0,3.0434,3.0464,3.0501,3.0522,3.054,3.0574,3.0597,3.0612,3.0635,3.0673,3.0695,3.0734,3.0765,3.0825,3.0847,3.0883,3.0883,3.0912,3.0889,3.0885,3.0884,3.0882,3.0885,3.0915,3.0916,3.0916,3.0917,0,3.0492,3.05,3.0532,3.0568,3.0595,3.0624,3.0653,3.067,3.069,3.0716,3.0755,3.078,3.0828,3.0866,3.0904,3.0922,3.0923,3.0924,3.0933,3.093,3.0923,3.0927,3.0845,3.0922,3.0921,3.0921,3.0921,3.0921,3.0531,3.0557,3.0588,3.0625,3.0648,3.0675,3.0702,3.0722,3.0754,3.0795,3.0802,3.0844,3.0875,3.0926,3.0946,3.0979,3.0972,3.0984,3.0987,3.099,3.0992,3.0918,3.0986,3.0986,3.0986,3.0986,3.0985,0,3.0588,3.0609,3.0642,3.0683,3.0712,3.0711,3.0743,3.0768,3.0805,3.0833,3.0864,3.091,3.0948,3.0973,3.1011,3.1033,3.1035,3.1043,3.1041,3.1045,3.0995,3.0984,3.1041,3.1041,3.1041,3.1041,3.1041,3.1041,3.0622,3.0667,3.0679,3.0736,3.0757,3.0798,3.0816,3.0842,3.0865,3.0916,3.0947,3.0964,3.0992,3.1032,3.1067,3.1073,3.1087,3.1096,3.1102,3.1054,3.1049,3.1043,3.1033,3.1098,3.1099,3.1149,3.1149,3.115]},{"header":{"parameterUnit":"m.s-1","parameterCategory":1,"la1":30.2991,"la2":30.254,"lo1":-89.0895,"lo2":-89.0444,"dy":0.0017,"dx":0.0017,"nx":28,"ny":28,"refTime":"2026-01-30T03:00:00:Z","depth":0,"parameterNumber":3,"parameterNumberName":"V-component_of_WINDS"},"data":[0,0,0,0,0,0,0,0,0,0,0,0,0,0,0,0,0,0,0,0,0,0,0,0,0,0,0,0,0,0,0,0,0,0,0,0,0,0,0,0,0,0,0,0,0,0,0,0,0,0,0,0,0,0,0,0,0,0,-7.6897,-7.6899,0,-7.7052,-7.7054,-7.7055,-7.6992,-7.6988,-7.6984,-7.6981,-7.7132,-7.7139,-7.7146,0,0,0,0,0,0,0,0,0,0,0,0,0,-7.6541,-7.6548,-7.6897,-7.6899,-7.6901,-7.7052,-7.7054,-7.7056,-7.6992,-7.6988,-7.6983,-7.6979,-7.7129,-7.7138,-7.7147,0,0,0,0,0,0,0,0,0,0,0,0,0,-7.6696,-7.655,-7.6897,-7.6888,-7.6888,-7.7051,-7.7054,-7.7056,-7.6993,-7.6988,-7.6982,-7.6977,-7.7127,-7.7137,-7.7148,-7.7327,0,0,-7.7182,-7.7187,0,0,0,0,0,0,0,0,-7.6687,-7.6709,-7.6887,-7.6889,-7.689,-7.6997,-7.6983,-7.7147,-7.6995,-7.6953,-7.6981,-7.6974,-7.7091,-7.7105,-7.7146,-7.7334,-7.7341,-7.7183,-7.719,-7.7195,-7.7198,0,0,0,0,0,0,0,-7.6676,-7.6702,-7.6958,-7.689,-7.6891,-7.6874,-7.689,-7.7014,-7.7051,-7.6956,-7.6952,-7.6972,-7.709,-7.7135,-7.7149,-7.7343,-7.7183,-7.7193,-7.72,-7.7204,-7.7687,-7.7693,0,0,0,0,0,0,-7.6666,-7.6693,-7.6953,-7.6963,-7.6773,-7.6885,-7.6903,-7.6968,-7.7049,-7.7056,-7.6976,-7.6968,-7.7119,-7.7136,-7.7154,-7.7369,-7.7195,-7.7205,-7.7212,-7.7681,-7.7688,-7.7695,0,0,0,0,0,0,-7.6659,-7.669,-7.6947,-7.6827,-7.6858,-7.6897,-7.6971,-7.6974,-7.7018,-7.7064,-7.707,-7.7015,-7.7115,-7.7138,-7.7285,-7.7373,-7.721,-7.7221,-7.7674,-7.7683,-7.7692,-7.7801,0,0,0,0,0,0,-7.6649,-7.6688,-7.6757,-7.6829,-7.6865,-7.7078,-7.6976,-7.6981,-7.7039,-7.7029,-7.7102,-7.7109,-7.7112,-7.7269,-7.7296,-7.7386,-7.7229,-7.7666,-7.7678,-7.7689,-7.779,-7.7813,-7.7833,0,0,0,0,0,-7.6636,-7.678,-7.6761,-7.6793,-7.6953,-7.7083,-7.7104,-7.7106,-7.7046,-7.7115,-7.7145,-7.7107,-7.736,-7.7285,-7.7315,-7.7409,-7.766,-7.7674,-7.7688,-7.778,-7.7809,-7.7832,0,0,0,0,0,0,-7.6715,-7.6789,-7.6769,-7.6941,-7.7007,-7.7072,-7.716,-7.7136,-7.7218,-7.7206,-7.7204,-7.7221,-7.7373,-7.7406,-7.7321,-7.7587,-7.75,-7.7521,-7.756,-7.7588,-7.7609,-7.7597,-7.7239,0,0,0,0,0,-7.6752,-7.6854,-7.6913,-7.7058,-7.7093,-7.7121,-7.7178,-7.7175,-7.7242,-7.7268,-7.7309,-7.7373,-7.7467,-7.7529,-7.7618,-7.7794,-7.7809,-7.7874,-7.7895,-7.7913,-7.793,-7.8027,-7.8056,-7.774,-7.774,-7.774,0,0,-7.683,-7.6884,-7.6947,-7.7076,-7.7126,-7.723,-7.7145,-7.7257,-7.7334,-7.7284,-7.7427,-7.7459,-7.7531,-7.7694,-7.7768,-7.7726,-7.8021,-7.7931,-7.7944,-7.7952,-7.8044,-7.8074,-7.8101,-7.775,-7.7748,-7.7746,0,0,-7.7026,-7.7076,-7.7204,-7.7258,-7.7336,-7.7355,-7.7386,-7.7456,-7.7476,-7.762,-7.7586,-7.7675,-7.7837,-7.789,-7.7938,-7.8157,-7.8124,-7.8185,-7.8297,-7.8391,-7.8416,-7.8438,-7.8516,-7.8544,-7.8203,-7.8203,-7.8203,0,-7.7112,-7.7269,-7.7272,-7.7389,-7.7446,-7.741,-7.7538,-7.7589,-7.7692,-7.7732,-7.7684,-7.7888,-7.7933,-7.8109,-7.8162,-7.8202,-7.8237,-7.8177,-7.8413,-7.8435,-7.8455,-7.853,-7.8559,-7.821,-7.8209,-7.8208,-7.8208,0,-7.7371,-7.7481,-7.7574,-7.7678,-7.7746,-7.7868,-7.7888,-7.7956,-7.7948,-7.7971,-7.8117,-7.8171,-7.8271,-7.8312,-7.8304,-7.8487,-7.8459,-7.8412,-7.8325,-7.8493,-7.8563,-7.8591,-7.822,-7.8217,-7.8215,-7.8214,0,0,-7.7619,-7.7725,-7.7759,-7.7807,-7.7892,-7.7976,-7.8096,-7.8197,-7.8255,-7.8327,-7.8428,-7.8567,-7.8525,-7.858,-7.8576,-7.8659,-7.8829,-7.8602,-7.8604,-7.8643,-7.9035,-7.907,-7.9103,-7.8809,-7.8814,-7.8818,-7.9029,0,-7.7821,-7.8035,-7.8042,-7.8237,-7.8338,-7.8305,-7.841,-7.8473,-7.8498,-7.8586,-7.8612,-7.8711,-7.8648,-7.8681,-7.8761,-7.8792,-7.8908,-7.8776,-7.89,-7.8905,-7.8884,-7.9139,-7.9176,-7.9373,-7.9056,-7.9061,-7.9064,0,-7.8085,-7.817,-7.8376,-7.8448,-7.8491,-7.8585,-7.8679,-7.8764,-7.8834,-7.8846,-7.8909,-7.8895,-7.9016,-7.8926,-7.9093,-7.9003,-7.9054,-7.9077,-7.9085,-7.9096,-7.8995,-7.9158,-7.9435,-7.9465,-7.9107,-7.9104,-7.9101,0,-7.8246,-7.8411,-7.8556,-7.8597,-7.8685,-7.8752,-7.8792,-7.8857,-7.8918,-7.8998,-7.9038,-7.9131,-7.9181,-7.9253,-7.9263,-7.9197,-7.9431,-7.9342,-7.9444,-7.9444,-7.9494,-7.9491,-7.9784,-7.9527,-7.9527,-7.9526,-7.9526,0,-7.8471,-7.8598,-7.8629,-7.8718,-7.886,-7.8866,-7.9005,-7.9039,-7.9098,-7.9192,-7.9168,-7.9256,-7.9265,-7.9355,-7.9364,-7.9501,-7.9524,-7.9536,-7.9537,-7.9539,-7.9537,-7.9572,-7.9558,-7.9534,-7.9532,-7.9531,-7.953,0,-7.8674,-7.87,-7.8856,-7.8928,-7.8949,-7.905,-7.911,-7.9195,-7.9218,-7.9337,-7.9366,-7.9402,-7.9507,-7.9525,-7.9648,-7.9654,-7.9818,-7.9804,-7.9795,-7.9793,-7.9895,-7.9885,-8.022,-8.0264,-7.9979,-7.9982,-7.9984,0,-7.8816,-7.8914,-7.8997,-7.906,-7.9104,-7.9204,-7.9267,-7.9277,-7.9343,-7.9432,-7.9506,-7.9609,-7.9693,-7.9862,-7.9898,-7.9992,-7.9981,-8.0092,-7.9994,-7.9993,-7.9983,-7.9977,-7.9987,-8.011,-8.0113,-8.0116,-8.0118,0,-7.9065,-7.9074,-7.9167,-7.9265,-7.9342,-7.9418,-7.9491,-7.9543,-7.9562,-7.9637,-7.9747,-7.9812,-7.994,-8.0042,-8.0136,-8.0174,-8.015,-8.0149,-8.0177,-8.018,-8.0171,-8.0177,-7.9846,-8.014,-8.0138,-8.0136,-8.0135,-8.0134,-7.9242,-7.9328,-7.9401,-7.9506,-7.9562,-7.9631,-7.9715,-7.975,-7.9843,-7.9949,-7.9949,-8.0069,-8.0137,-8.0261,-8.0306,-8.0398,-8.0362,-8.0403,-8.0414,-8.0424,-8.0434,-8.0157,-8.0415,-8.0414,-8.0414,-8.0413,-8.0413,0,-7.9491,-7.9537,-7.9633,-7.9738,-7.982,-7.9792,-7.9872,-7.9942,-8.0048,-8.0115,-8.0199,-8.0325,-8.0425,-8.047,-8.0568,-8.0633,-8.0625,-8.0659,-8.0654,-8.0663,-8.046,-8.0426,-8.0665,-8.0664,-8.0664,-8.0664,-8.0664,-8.0664,-7.963,-7.9774,-7.9792,-7.9964,-8.0008,-8.0128,-8.0176,-8.0239,-8.0293,-8.0436,-8.052,-8.055,-8.0608,-8.071,-8.0801,-8.0811,-8.0848,-8.0888,-8.0893,-8.0703,-8.0677,-8.0653,-8.0621,-8.0896,-8.0896,-8.1088,-8.109,-8.1091]}]]